Preview of NWS' New Version of Forecast
This preview is not operational and should not be used for support decisions.

Regional Weather Roundup (RWR)

Issued by National Weather Service (NWS)

                            
000
ASUS43 KLSX 202157
RWRMO 

WEATHER SUMMARY FOR MISSOURI
NATIONAL WEATHER SERVICE SPRINGFIELD MO
500 PM CDT WED MAR 20 2019

NOTE: "FAIR" INDICATES FEW OR NO CLOUDS BELOW 12,000 FEET WITH NO
       SIGNIFICANT WEATHER AND/OR OBSTRUCTIONS TO VISIBILITY.
       CURRENT SKY AND/OR WEATHER CONDITIONS ARE NOT AVAILABLE FOR
       CHILLICOTHE AND FARMINGTON.

MOZ001>031-035>038-043-044-053-054-202300-
...NORTHERN AND WESTERN MISSOURI...
  
CITY           SKY/WX    TMP DP  RH WIND       PRES   REMARKS
KANSAS CTY INT MOSUNNY   57  33  40 NW13G23   30.05S                  
LEE'S SUMMIT   MOSUNNY   57  33  40 W16G23    30.06R                  
ST JOSEPH      SUNNY     58  34  40 W14G21    30.04F                  
CHILLICOTHE      N/A     54  36  50 W10G18    30.04F                  
     
$$
MOZ066>068-077>081-088>096-101>105-202300-
...SOUTHWEST MISSOURI...
  
CITY           SKY/WX    TMP DP  RH WIND       PRES   REMARKS
SPRINGFIELD    CLOUDY    51  37  58 NW9       30.10F                  
JOPLIN         CLOUDY    54  38  54 NW10G20   30.12F                  
BRANSON        CLOUDY    48  36  61 W7        30.12S                  
               
$$
MOZ032>034-039>042-045>050-055>058-069>072-202300-
...CENTRAL MISSOURI...  
  
CITY           SKY/WX    TMP DP  RH WIND       PRES   REMARKS
COLUMBIA       NOT AVBL                                               
JEFFERSON CITY PTSUNNY   54  37  52 W7G16     30.04F                  
ROLLA          CLOUDY    50  37  61 W12       30.05S                  
SEDALIA        MOSUNNY   54  37  52 W14G23    30.04F                  
WARRENSBURG    SUNNY     55  32  41 W13       30.05S                  
               
$$
MOZ051-052-059>065-202300-
...EAST CENTRAL MISSOURI...
  
CITY           SKY/WX    TMP DP  RH WIND       PRES   REMARKS
ST LOUIS INTL  CLOUDY    51  38  60 W9        30.02F                  
                   
$$
MOZ072>076-082>087-097>100-106>115-202300-
...SOUTH CENTRAL AND SOUTHEAST MISSOURI...
  
CITY           SKY/WX    TMP DP  RH WIND       PRES   REMARKS
CAPE GIRARDEAU CLOUDY    48  44  86 S10       30.07F                  
POPLAR BLUFF   LGT RAIN  50  47  89 SW8       30.08F FOG              
WEST PLAINS    LGT RAIN  45  40  82 NW9G21    30.09S                  
                                       
$$